When you browse on this site, cookies collect data to enhance your experience and personalize the content and advertising you see.
Visit our Privacy Policy to learn more. By continuing to use the site, you agree to this use of cookies and data.
  • In United Kingdom
  • List of Countries
  • For 7 days
  • Water Temperature
  • Weather Map
  • Weather Widgets
  • user-avatar
    Login

    Hourly Weather Netivot

    Today, 18 September, Wednesday

    Time Temperature Precipitation Wind Pressure Humidity
    00:00 +22°C° 0 mm 3 mps 747 mmHg 73%
    01:00 +23°C° 0 mm 2 mps 747 mmHg 74%
    02:00 +21°C° 0 mm 2 mps 747 mmHg 76%
    03:00 +21°C° 0 mm 2 mps 747 mmHg 76%
    04:00 +21°C° 0 mm 2 mps 747 mmHg 76%
    05:00 +21°C° 0 mm 2 mps 748 mmHg 77%
    06:00 +24°C° 0 mm 2 mps 748 mmHg 68%
    07:00 +26°C° 0 mm 2 mps 748 mmHg 58%
    08:00 +28°C° 0 mm 2 mps 748 mmHg 50%
    09:00 +30°C° 0 mm 3 mps 748 mmHg 44%
    10:00 +33°C° 0 mm 4 mps 748 mmHg 38%
    11:00 +35°C° 0 mm 5 mps 748 mmHg 32%
    12:00 +34°C° 0 mm 5 mps 747 mmHg 36%
    13:00 +34°C° 0 mm 6 mps 747 mmHg 39%
    14:00 +34°C° 0 mm 7 mps 746 mmHg 43%
    15:00 +33°C° 0 mm 7 mps 746 mmHg 49%
    16:00 +30°C° 0 mm 7 mps 746 mmHg 55%
    17:00 +29°C° 0 mm 7 mps 746 mmHg 61%
    18:00 +28°C° 0 mm 6 mps 746 mmHg 68%
    19:00 +27°C° 0 mm 4 mps 747 mmHg 74%
    20:00 +26°C° 0 mm 3 mps 747 mmHg 81%
    21:00 +25°C° 0 mm 3 mps 747 mmHg 83%
    22:00 +25°C° 0 mm 2 mps 747 mmHg 84%
    23:00 +24°C° 0 mm 2 mps 747 mmHg 86%

    Tomorrow, 19 September, Thursday

    Time Temperature Precipitation Wind Pressure Humidity
    00:00 +24°C° 0 mm 2 mps 747 mmHg 87%
    01:00 +23°C° 0 mm 1 mps 747 mmHg 88%
    02:00 +23°C° 0 mm 1 mps 747 mmHg 89%
    03:00 +23°C° 0 mm 1 mps 747 mmHg 89%
    04:00 +23°C° 0 mm 1 mps 747 mmHg 89%
    05:00 +23°C° 0 mm 1 mps 747 mmHg 89%
    06:00 +24°C° 0 mm 1 mps 747 mmHg 82%
    07:00 +26°C° 0 mm 1 mps 747 mmHg 75%
    08:00 +28°C° 0 mm 2 mps 747 mmHg 67%
    09:00 +30°C° 0 mm 2 mps 747 mmHg 60%
    10:00 +33°C° 0 mm 3 mps 747 mmHg 52%
    11:00 +35°C° 0 mm 4 mps 747 mmHg 45%
    12:00 +35°C° 0 mm 5 mps 747 mmHg 47%
    13:00 +34°C° 0 mm 6 mps 746 mmHg 50%
    14:00 +34°C° 0 mm 7 mps 746 mmHg 52%
    15:00 +33°C° 0 mm 7 mps 746 mmHg 56%
    16:00 +32°C° 0 mm 7 mps 746 mmHg 61%
    17:00 +29°C° 0 mm 7 mps 746 mmHg 65%
    18:00 +28°C° 0 mm 5 mps 746 mmHg 69%
    19:00 +27°C° 0 mm 4 mps 747 mmHg 74%
    20:00 +26°C° 0 mm 2 mps 747 mmHg 79%
    21:00 +25°C° 0 mm 2 mps 747 mmHg 80%
    22:00 +25°C° 0 mm 2 mps 747 mmHg 81%
    23:00 +25°C° 0 mm 2 mps 747 mmHg 82%

    Day after tomorrow, 20 September, Friday

    Time Temperature Precipitation Wind Pressure Humidity
    00:00 +24°C° 0 mm 2 mps 747 mmHg 83%
    01:00 +24°C° 0 mm 2 mps 747 mmHg 85%
    02:00 +23°C° 0 mm 1 mps 746 mmHg 87%
    03:00 +23°C° 0 mm 1 mps 747 mmHg 87%
    04:00 +23°C° 0 mm 1 mps 747 mmHg 88%
    05:00 +23°C° 0 mm 1 mps 747 mmHg 88%
    06:00 +25°C° 0 mm 2 mps 747 mmHg 80%
    07:00 +26°C° 0 mm 2 mps 747 mmHg 73%
    08:00 +28°C° 0 mm 2 mps 747 mmHg 66%
    09:00 +29°C° 0 mm 2 mps 747 mmHg 58%
    10:00 +31°C° 0 mm 3 mps 747 mmHg 51%
    11:00 +33°C° 0 mm 4 mps 747 mmHg 44%
    12:00 +33°C° 0 mm 5 mps 746 mmHg 43%
    13:00 +33°C° 0 mm 6 mps 746 mmHg 43%
    14:00 +33°C° 0 mm 6 mps 746 mmHg 43%
    15:00 +32°C° 0 mm 6 mps 746 mmHg 48%
    16:00 +30°C° 0 mm 6 mps 746 mmHg 52%
    17:00 +28°C° 0 mm 6 mps 746 mmHg 57%
    18:00 +27°C° 0 mm 5 mps 746 mmHg 63%
    19:00 +26°C° 0 mm 4 mps 747 mmHg 69%
    20:00 +25°C° 0 mm 3 mps 747 mmHg 75%
    21:00 +24°C° 0 mm 2 mps 747 mmHg 76%
    22:00 +23°C° 0 mm 2 mps 747 mmHg 78%
    23:00 +23°C° 0 mm 1 mps 747 mmHg 79%

    21 September, Saturday

    Time Temperature Precipitation Wind Pressure Humidity
    00:00 +23°C° 0 mm 1 mps 747 mmHg 80%
    01:00 +22°C° 0 mm 1 mps 747 mmHg 81%
    02:00 +22°C° 0 mm 1 mps 747 mmHg 83%
    03:00 +22°C° 0 mm 1 mps 747 mmHg 83%
    04:00 +22°C° 0 mm 1 mps 747 mmHg 83%
    05:00 +21°C° 0 mm 1 mps 747 mmHg 83%
    06:00 +23°C° 0 mm 1 mps 747 mmHg 75%
    07:00 +25°C° 0 mm 2 mps 747 mmHg 67%
    08:00 +27°C° 0 mm 2 mps 747 mmHg 58%
    09:00 +28°C° 0 mm 3 mps 747 mmHg 52%
    10:00 +30°C° 0 mm 3 mps 747 mmHg 45%
    11:00 +32°C° 0 mm 4 mps 747 mmHg 39%
    12:00 +32°C° 0 mm 4 mps 747 mmHg 39%
    13:00 +32°C° 0 mm 5 mps 746 mmHg 39%
    14:00 +32°C° 0 mm 5 mps 745 mmHg 39%
    15:00 +30°C° 0 mm 5 mps 745 mmHg 44%
    16:00 +29°C° 0 mm 5 mps 745 mmHg 49%
    17:00 +28°C° 0 mm 5 mps 745 mmHg 54%
    18:00 +26°C° 0 mm 4 mps 746 mmHg 62%
    19:00 +24°C° 0 mm 3 mps 746 mmHg 71%
    20:00 +23°C° 0 mm 2 mps 746 mmHg 79%
    21:00 +22°C° 0 mm 1 mps 746 mmHg 81%
    22:00 +22°C° 0 mm 1 mps 746 mmHg 83%
    23:00 +19°C° 0 mm 0 mps 746 mmHg 85%

    22 September, Sunday

    Time Temperature Precipitation Wind Pressure Humidity
    00:00 +21°C° 0 mm 1 mps 746 mmHg 85%
    01:00 +21°C° 0 mm 1 mps 746 mmHg 85%
    02:00 +21°C° 0 mm 1 mps 746 mmHg 85%
    03:00 +21°C° 0 mm 1 mps 746 mmHg 86%
    04:00 +20°C° 0 mm 2 mps 746 mmHg 86%
    05:00 +20°C° 0 mm 2 mps 746 mmHg 87%
    06:00 +21°C° 0 mm 2 mps 746 mmHg 81%
    07:00 +24°C° 0 mm 2 mps 747 mmHg 74%
    08:00 +26°C° 0 mm 2 mps 747 mmHg 68%
    09:00 +28°C° 0 mm 2 mps 747 mmHg 60%
    10:00 +29°C° 0 mm 2 mps 747 mmHg 52%
    11:00 +31°C° 0 mm 3 mps 747 mmHg 44%
    12:00 +32°C° 0 mm 4 mps 746 mmHg 45%
    13:00 +32°C° 0 mm 5 mps 746 mmHg 45%
    14:00 +32°C° 0 mm 6 mps 745 mmHg 46%
    15:00 +30°C° 0 mm 6 mps 745 mmHg 50%
    16:00 +29°C° 0 mm 6 mps 745 mmHg 54%
    17:00 +28°C° 0 mm 6 mps 745 mmHg 58%
    18:00 +27°C° 0 mm 5 mps 746 mmHg 65%
    19:00 +25°C° 0 mm 4 mps 746 mmHg 72%
    20:00 +24°C° 0 mm 3 mps 747 mmHg 79%
    21:00 +22°C° 0 mm 3 mps 747 mmHg 80%
    22:00 +23°C° 0 mm 2 mps 747 mmHg 82%
    23:00 +21°C° 0 mm 2 mps 747 mmHg 84%

    23 September, Monday

    Time Temperature Precipitation Wind Pressure Humidity
    00:00 +21°C° 0 mm 2 mps 747 mmHg 84%
    01:00 +21°C° 0 mm 2 mps 747 mmHg 84%
    02:00 +21°C° 0 mm 1 mps 747 mmHg 85%
    03:00 +21°C° 0 mm 1 mps 747 mmHg 85%
    04:00 +21°C° 0 mm 1 mps 747 mmHg 85%
    05:00 +20°C° 0 mm 1 mps 747 mmHg 85%
    06:00 +22°C° 0 mm 1 mps 747 mmHg 76%
    07:00 +25°C° 0 mm 1 mps 748 mmHg 67%
    08:00 +27°C° 0 mm 1 mps 748 mmHg 58%
    09:00 +29°C° 0 mm 3 mps 748 mmHg 51%
    10:00 +30°C° 0 mm 4 mps 748 mmHg 43%
    11:00 +33°C° 0 mm 5 mps 748 mmHg 36%
    12:00 +33°C° 0 mm 5 mps 747 mmHg 37%
    13:00 +33°C° 0 mm 6 mps 747 mmHg 38%
    14:00 +33°C° 0 mm 7 mps 746 mmHg 39%
    15:00 +32°C° 0 mm 7 mps 746 mmHg 44%
    16:00 +29°C° 0 mm 6 mps 746 mmHg 48%
    17:00 +28°C° 0 mm 6 mps 746 mmHg 53%
    18:00 +27°C° 0 mm 5 mps 746 mmHg 60%
    19:00 +25°C° 0 mm 4 mps 747 mmHg 67%
    20:00 +24°C° 0 mm 3 mps 747 mmHg 73%
    21:00 +22°C° 0 mm 3 mps 747 mmHg 76%
    22:00 +21°C° 0 mm 2 mps 747 mmHg 79%
    23:00 +21°C° 0 mm 1 mps 747 mmHg 82%
    Show more